When you browse on this site, cookies collect data to enhance your experience and personalize the content and advertising you see.
Visit our Privacy Policy to learn more. By continuing to use the site, you agree to this use of cookies and data.
  • In Hungary
  • List of Countries
  • For 7 days
  • Water Temperature
  • Satellite Maps
  • Weather Map
  • News
  • Weather Widgets
  • user-avatar
    Login

    Hourly Weather Varna

    Today, 19 January, Saturday

    Time Temperature Precipitation Wind Pressure Humidity
    00:00 +4°C° 0 mm 2 mps 746 mmHg 79%
    01:00 +4°C° 0 mm 2 mps 746 mmHg 76%
    02:00 +4°C° 0 mm 2 mps 746 mmHg 74%
    03:00 +3°C° 0 mm 3 mps 746 mmHg 73%
    04:00 +3°C° 0 mm 3 mps 747 mmHg 72%
    05:00 +3°C° 0 mm 3 mps 747 mmHg 71%
    06:00 +2°C° 0 mm 3 mps 747 mmHg 74%
    07:00 +1°C° 0 mm 3 mps 748 mmHg 77%
    08:00 0°C° 0 mm 4 mps 748 mmHg 81%
    09:00 0°C° 0 mm 4 mps 749 mmHg 80%
    10:00 +1°C° 0 mm 4 mps 749 mmHg 79%
    11:00 +3°C° 0 mm 4 mps 750 mmHg 78%
    12:00 +3°C° 0 mm 4 mps 750 mmHg 77%
    13:00 +4°C° 0 mm 4 mps 750 mmHg 76%
    14:00 +4°C° 0 mm 4 mps 750 mmHg 75%
    15:00 +4°C° 0 mm 4 mps 750 mmHg 78%
    16:00 +2°C° 0 mm 5 mps 750 mmHg 81%
    17:00 +2°C° 0 mm 5 mps 750 mmHg 84%
    18:00 +2°C° 0.1 mm 5 mps 750 mmHg 85%
    19:00 +3°C° 0.1 mm 4 mps 750 mmHg 87%
    20:00 +3°C° 0.1 mm 4 mps 750 mmHg 88%
    21:00 +3°C° 0.1 mm 4 mps 750 mmHg 89%
    22:00 +3°C° 0.1 mm 4 mps 750 mmHg 90%
    23:00 +3°C° 0.1 mm 4 mps 750 mmHg 90%

    Tomorrow, 20 January, Sunday

    Time Temperature Precipitation Wind Pressure Humidity
    00:00 +3°C° 0.1 mm 4 mps 750 mmHg 91%
    01:00 +3°C° 0.1 mm 4 mps 750 mmHg 91%
    02:00 +3°C° 0.1 mm 4 mps 750 mmHg 92%
    03:00 +3°C° 0.1 mm 4 mps 749 mmHg 92%
    04:00 +3°C° 0.1 mm 4 mps 749 mmHg 92%
    05:00 +3°C° 0.1 mm 4 mps 749 mmHg 93%
    06:00 +3°C° 0.2 mm 4 mps 749 mmHg 93%
    07:00 +4°C° 0.2 mm 4 mps 748 mmHg 94%
    08:00 +4°C° 0.2 mm 4 mps 748 mmHg 94%
    09:00 +4°C° 0.1 mm 4 mps 748 mmHg 95%
    10:00 +5°C° 0.1 mm 4 mps 748 mmHg 95%
    11:00 +5°C° 0.1 mm 4 mps 748 mmHg 95%
    12:00 +5°C° 0.1 mm 4 mps 747 mmHg 95%
    13:00 +6°C° 0.1 mm 4 mps 747 mmHg 96%
    14:00 +6°C° 0.1 mm 4 mps 746 mmHg 96%
    15:00 +7°C° 0.1 mm 3 mps 746 mmHg 96%
    16:00 +7°C° 0.1 mm 3 mps 746 mmHg 96%
    17:00 +7°C° 0.1 mm 3 mps 746 mmHg 97%
    18:00 +7°C° 0.1 mm 2 mps 746 mmHg 96%
    19:00 +7°C° 0.1 mm 2 mps 745 mmHg 96%
    20:00 +7°C° 0.1 mm 2 mps 745 mmHg 96%
    21:00 +7°C° 0.4 mm 2 mps 745 mmHg 96%
    22:00 +7°C° 0.4 mm 3 mps 745 mmHg 97%
    23:00 +7°C° 0.4 mm 3 mps 745 mmHg 97%

    Day after tomorrow, 21 January, Monday

    Time Temperature Precipitation Wind Pressure Humidity
    00:00 +7°C° 0.6 mm 3 mps 745 mmHg 97%
    01:00 +5°C° 0.6 mm 3 mps 745 mmHg 96%
    02:00 +5°C° 0.6 mm 3 mps 745 mmHg 96%
    03:00 +4°C° 0 mm 3 mps 745 mmHg 94%
    04:00 +3°C° 0 mm 4 mps 745 mmHg 92%
    05:00 +3°C° 0 mm 4 mps 745 mmHg 90%
    06:00 +1°C° 0 mm 5 mps 746 mmHg 89%
    07:00 +1°C° 0 mm 5 mps 746 mmHg 89%
    08:00 +1°C° 0 mm 5 mps 747 mmHg 89%
    09:00 +1°C° 0 mm 5 mps 747 mmHg 86%
    10:00 +2°C° 0 mm 5 mps 747 mmHg 84%
    11:00 +2°C° 0 mm 5 mps 748 mmHg 81%
    12:00 +3°C° 0 mm 5 mps 748 mmHg 79%
    13:00 +3°C° 0 mm 5 mps 748 mmHg 78%
    14:00 +4°C° 0 mm 4 mps 748 mmHg 76%
    15:00 +4°C° 0 mm 4 mps 748 mmHg 77%
    16:00 +3°C° 0 mm 4 mps 748 mmHg 79%
    17:00 +3°C° 0 mm 4 mps 748 mmHg 80%
    18:00 +2°C° 0 mm 3 mps 749 mmHg 80%
    19:00 +2°C° 0 mm 3 mps 749 mmHg 81%
    20:00 +2°C° 0 mm 3 mps 749 mmHg 81%
    21:00 +2°C° 0 mm 3 mps 750 mmHg 82%
    22:00 +1°C° 0 mm 3 mps 750 mmHg 82%
    23:00 +1°C° 0 mm 3 mps 750 mmHg 83%

    22 January, Tuesday

    Time Temperature Precipitation Wind Pressure Humidity
    00:00 +1°C° 0 mm 3 mps 750 mmHg 85%
    01:00 0°C° 0 mm 3 mps 750 mmHg 86%
    02:00 0°C° 0 mm 3 mps 750 mmHg 88%
    03:00 0°C° 0 mm 3 mps 749 mmHg 88%
    04:00 0°C° 0 mm 3 mps 749 mmHg 89%
    05:00 0°C° 0 mm 3 mps 749 mmHg 90%
    06:00 0°C° 0 mm 3 mps 749 mmHg 90%
    07:00 0°C° 0 mm 3 mps 748 mmHg 90%
    08:00 +1°C° 0 mm 3 mps 748 mmHg 90%
    09:00 +1°C° 0.1 mm 3 mps 748 mmHg 89%
    10:00 +2°C° 0.1 mm 3 mps 748 mmHg 88%
    11:00 +3°C° 0.1 mm 4 mps 748 mmHg 86%
    12:00 +3°C° 0.1 mm 4 mps 747 mmHg 87%
    13:00 +3°C° 0.1 mm 4 mps 747 mmHg 88%
    14:00 +4°C° 0.1 mm 4 mps 746 mmHg 89%
    15:00 +4°C° 0.1 mm 4 mps 746 mmHg 91%
    16:00 +4°C° 0.1 mm 4 mps 745 mmHg 92%
    17:00 +4°C° 0.1 mm 4 mps 745 mmHg 94%
    18:00 +3°C° 0.1 mm 5 mps 744 mmHg 94%
    19:00 +3°C° 0.1 mm 5 mps 744 mmHg 95%
    20:00 +3°C° 0.1 mm 6 mps 744 mmHg 95%
    21:00 +5°C° 0.2 mm 5 mps 743 mmHg 95%
    22:00 +5°C° 0.2 mm 5 mps 743 mmHg 95%
    23:00 +5°C° 0.2 mm 5 mps 742 mmHg 95%

    23 January, Wednesday

    Time Temperature Precipitation Wind Pressure Humidity
    00:00 +5°C° 0.1 mm 5 mps 741 mmHg 96%
    01:00 +6°C° 0.1 mm 5 mps 741 mmHg 96%
    02:00 +6°C° 0.1 mm 5 mps 740 mmHg 96%
    03:00 +6°C° 0.1 mm 5 mps 739 mmHg 96%
    04:00 +6°C° 0.1 mm 5 mps 739 mmHg 96%
    05:00 +5°C° 0.1 mm 6 mps 738 mmHg 96%
    06:00 +5°C° 2.3 mm 6 mps 737 mmHg 96%
    07:00 +5°C° 2.3 mm 6 mps 737 mmHg 96%
    08:00 +5°C° 2.3 mm 7 mps 737 mmHg 96%
    09:00 +6°C° 0.7 mm 7 mps 736 mmHg 92%
    10:00 +6°C° 0.7 mm 8 mps 736 mmHg 88%
    11:00 +7°C° 0.7 mm 8 mps 736 mmHg 84%
    12:00 +7°C° 1 mm 8 mps 735 mmHg 85%
    13:00 +8°C° 1 mm 7 mps 734 mmHg 86%
    14:00 +8°C° 1 mm 7 mps 734 mmHg 87%
    15:00 +8°C° 0.2 mm 6 mps 734 mmHg 87%
    16:00 +8°C° 0.2 mm 6 mps 734 mmHg 87%
    17:00 +8°C° 0.2 mm 6 mps 734 mmHg 87%
    18:00 +8°C° 0.2 mm 5 mps 734 mmHg 87%
    19:00 +7°C° 0.2 mm 5 mps 734 mmHg 88%
    20:00 +6°C° 0.2 mm 4 mps 734 mmHg 88%
    21:00 +7°C° 0 mm 3 mps 735 mmHg 88%
    22:00 +7°C° 0 mm 3 mps 735 mmHg 89%
    23:00 +6°C° 0 mm 2 mps 735 mmHg 89%

    24 January, Thursday

    Time Temperature Precipitation Wind Pressure Humidity
    00:00 +5°C° 0 mm 3 mps 735 mmHg 89%
    01:00 +5°C° 0 mm 3 mps 736 mmHg 88%
    02:00 +5°C° 0 mm 3 mps 736 mmHg 88%
    03:00 +4°C° 0 mm 3 mps 736 mmHg 88%
    04:00 +4°C° 0 mm 3 mps 735 mmHg 88%
    05:00 +4°C° 0 mm 3 mps 735 mmHg 88%
    06:00 +4°C° 0 mm 3 mps 735 mmHg 89%
    07:00 +4°C° 0 mm 3 mps 735 mmHg 90%
    08:00 +4°C° 0 mm 3 mps 736 mmHg 92%
    09:00 +6°C° 0 mm 4 mps 736 mmHg 89%
    10:00 +7°C° 0 mm 4 mps 735 mmHg 87%
    11:00 +8°C° 0 mm 5 mps 735 mmHg 85%
    12:00 +8°C° 0 mm 5 mps 735 mmHg 86%
    13:00 +8°C° 0 mm 6 mps 735 mmHg 87%
    14:00 +8°C° 0 mm 6 mps 735 mmHg 88%
    15:00 +7°C° 0 mm 5 mps 735 mmHg 90%
    16:00 +7°C° 0 mm 4 mps 735 mmHg 92%
    17:00 +7°C° 0 mm 4 mps 734 mmHg 94%
    18:00 +7°C° 0.6 mm 4 mps 735 mmHg 95%
    19:00 +7°C° 0.6 mm 4 mps 735 mmHg 96%
    20:00 +7°C° 0.6 mm 4 mps 735 mmHg 97%
    21:00 +7°C° 0.2 mm 4 mps 735 mmHg 96%
    22:00 +7°C° 0.2 mm 4 mps 735 mmHg 95%
    23:00 +7°C° 0.2 mm 5 mps 735 mmHg 94%
    Show more